SCP
1 1 1 1 1 1 0 0 0 0 0 0 1 1 1 1 1 1 1 1 0 0 0 0 0 0 0 0 0 0 0 0 0 0 0 0 0 0 0 0 0 0 0
1 1 1 1 1 0 0 0 0 0 0 0 0 1 1 1 1 1 1 1 0 0 0 0 0 0 0 0 0 0 0 0 0 0 0 0 0 0 0 0 0 0 0
1 1 1 1 1 0 0 0 0 0 0 0 0 1 1 1 1 1 1 0 0 0 0 0 0 0 0 0 0 0 0 0 0 0 0 0 0 0 0 0 0 0 0
1 1 1 1 1 1 1 1 1 1 1 1 1 1 1 1 1 1 0 0 0 0 0 0 0 0 0 0 0 0 0 0 0 0 0 0 0 0 0 0 0 0 0
2 1 1 1 1 1 1 1 1 1 2 2 1 1 1 1 1 0 0 0 0 0 0 0 0 0 0 0 0 0 0 0 0 0 0 0 0 0 0 0 0 0 0
2 2 1 1 1 1 1 1 2 2 2 2 2 1 1 1 1 0 0 0 0 0 0 0 0 0 0 0 0 0 0 0 0 0 0 0 0 0 0 0 0 0 0
2 1 1 1 1 1 1 2 2 2 2 2 2 2 1 1 1 0 0 0 0 0 0 0 0 0 0 0 0 0 0 0 0 0 0 0 0 0 0 0 0 0 0
2 1 1 1 1 1 1 1 2 2 2 2 2 2 1 1 1 0 0 0 0 0 0 0 0 0 0 0 0 0 0 0 0 0 0 0 0 0 0 0 0 0 0
2 2 1 1 1 1 1 1 1 1 2 1 1 1 1 1 1 0 0 0 0 0 0 0 0 0 0 0 0 0 0 0 0 0 0 0 0 0 0 0 0 0 0
2 2 2 2 2 1 1 1 1 1 1 1 1 1 1 0 0 0 0 0 0 0 0 0 0 0 0 0 0 0 0 0 0 0 0 0 0 0 0 0 0 0 0
2 2 2 2 2 2 2 1 1 1 1 1 1 1 0 0 0 0 0 0 0 0 0 0 0 0 0 0 0 0 0 0 0 0 0 0 0 0 0 0 0 0 0
2 2 3 3 3 3 2 2 2 2 1 1 1 1 0 0 0 0 0 0 0 0 0 0 0 0 0 0 0 0 0 0 0 0 0 0 0 0 0 0 0 0 0
2 3 3 4 4 3 3 3 3 2 2 2 1 1 0 0 0 0 0 0 0 0 0 0 0 0 0 0 0 0 0 0 0 0 0 0 0 0 0 0 0 0 0
3 3 4 5 5 4 3 3 3 3 2 2 1 0 0 0 0 0 0 0 0 0 0 0 0 0 0 0 0 0 0 0 0 0 0 0 0 0 0 0 0 0 0
4 4 5 6 5 4 2 2 2 2 2 1 1 0 0 0 0 0 0 0 0 0 0 0 0 0 0 0 0 0 0 0 0 0 0 0 0 0 0 0 0 0 0
5 5 5 5 5 3 1 0 1 1 1 0 0 0 0 0 0 0 0 0 0 0 0 0 0 0 0 0 0 0 0 0 0 0 0 0 0 0 0 0 0 0 0
4 4 4 3 2 1 0 0 0 0 0 0 0 0 0 0 0 0 0 0 0 0 0 0 0 0 0 0 0 0 0 0 0 0 0 0 0 0 0 0 0 0 0
3 2 2 1 1 0 0 0 0 0 0 0 0 0 0 0 0 0 0 0 0 0 0 0 0 0 0 0 0 0 0 0 0 0 0 0 0 0 0 0 0 0 0
1 1 1 0 0 0 0 0 0 0 0 0 0 0 0 0 0 0 0 0 0 0 0 0 0 0 0 0 0 0 0 0 0 0 0 0 0 0 0 0 0 0 0
0 0 0 0 0 0 0 0 0 0 0 0 0 0 0 0 0 0 0 0 0 0 0 0 0 0 0 0 0 0 0 0 0 0 0 0 0 0 0 0 0 0 0
0 0 0 0 0 0 0 0 0 0 0 0 0 0 0 0 0 0 0 0 0 0 0 0 0 0 0 0 0 0 0 0 0 0 0 0 0 0 0 0 0 0 0
0 0 0 0 0 0 0 0 0 0 0 0 0 0 0 0 0 0 0 0 0 0 0 0 0 0 0 0 0 0 0 0 0 0 0 0 0 0 0 0 0 0 0
0 0 0 0 0 0 0 0 0 0 0 0 0 0 0 0 0 0 0 0 0 0 0 0 0 0 0 0 0 0 0 0 0 0 0 0 0 0 0 0 0 0 0
0 0 0 0 0 0 0 0 0 0 0 0 0 0 0 0 0 0 0 0 0 0 0 0 0 0 0 0 0 0 0 0 0 0 0 0 0 0 0 0 0 0 0
0 0 0 0 0 0 0 0 0 0 0 0 0 0 0 0 0 0 0 0 0 0 0 0 0 0 0 0 0 0 0 0 0 0 0 0 0 0 0 0 0 0 0
0 0 0 0 0 0 0 0 0 0 0 0 0 0 0 0 0 0 0 0 0 0 0 0 0 0 0 0 0 0 0 0 0 0 0 0 0 0 0 0 0 0 0
Wind_Speed
6 6 5 5 5 5 4 5 4 4 4 4 5 4 4 4 4 4 3 3 4 2 2 2 2 2 1 1 1 2 1 3 2 0 1 2 3 3 3 3 3 3 2
6 5 5 4 4 4 3 3 4 4 3 4 4 4 4 4 3 4 4 3 4 3 3 3 2 2 2 1 2 2 1 2 3 2 1 2 3 2 3 3 3 3 2
5 5 5 4 4 4 3 2 3 3 3 3 3 3 3 3 3 3 3 3 4 3 2 3 2 3 2 2 2 2 1 2 3 3 2 2 2 2 3 3 4 3 3
6 5 5 5 4 4 3 3 3 4 4 3 3 3 3 3 3 3 4 5 5 5 4 3 2 3 3 2 2 2 3 4 4 4 3 2 2 2 3 3 3 3 3
6 6 5 5 5 5 4 4 4 4 4 4 4 3 3 3 3 5 6 7 6 6 5 4 5 7 7 5 4 3 4 4 4 4 3 3 3 3 2 2 2 2 3
7 6 5 6 6 5 5 5 5 5 5 5 5 5 5 4 6 8 7 7 7 6 6 5 6 7 10 12 12 10 7 5 4 4 3 3 2 2 2 3 2 2 2
7 6 6 6 6 6 6 6 6 6 6 6 5 6 6 6 9 10 10 7 6 5 5 5 5 6 8 8 11 13 12 12 8 5 5 3 2 1 2 3 3 3 1
7 6 6 7 7 7 7 6 6 5 6 6 6 6 7 7 9 10 11 8 7 6 5 5 6 5 6 7 8 8 7 7 6 5 5 4 3 2 2 2 2 2 2
7 6 6 7 8 8 7 7 6 6 7 6 5 6 7 6 8 10 10 7 7 7 6 6 6 6 8 9 8 7 7 6 8 10 9 8 7 7 4 4 3 3 2
6 6 6 7 8 8 8 7 6 7 7 7 7 6 6 6 8 10 9 6 7 6 5 6 8 8 9 9 7 7 7 4 4 6 6 7 6 6 7 4 2 2 2
7 7 7 7 7 8 8 7 7 7 8 8 8 6 6 6 7 9 8 5 6 6 5 4 5 10 10 10 8 5 5 4 4 5 4 4 4 4 4 3 2 2 2
8 8 7 7 7 7 9 7 7 8 8 7 7 7 5 5 6 7 8 8 7 7 5 4 5 9 10 9 7 8 9 7 4 4 4 3 3 3 3 3 3 2 1
8 8 8 8 7 7 8 8 6 6 6 6 6 6 5 4 6 9 10 10 10 7 5 8 8 9 8 7 9 9 7 5 4 4 3 2 1 1 2 3 4 4 4
10 8 8 8 8 7 5 5 6 5 6 6 6 6 5 4 4 4 5 6 9 8 6 7 9 9 7 7 6 6 4 4 4 3 2 2 2 3 3 2 3 3 3
9 8 8 8 8 8 7 5 5 4 4 6 5 5 6 5 3 5 5 4 4 4 5 4 4 4 5 5 4 4 4 4 4 3 3 3 3 3 3 2 2 2 2
9 8 7 7 7 7 8 8 13 10 12 11 9 8 5 7 9 9 9 9 9 8 7 5 4 4 4 4 4 3 3 4 3 3 3 3 2 2 2 2 2 2 2
9 8 7 7 7 7 7 8 8 9 13 13 11 11 9 10 10 10 10 9 9 8 6 4 4 4 4 3 3 3 2 2 2 3 3 2 2 2 2 2 2 2 2
9 9 9 7 6 6 6 6 6 8 7 5 6 9 9 9 9 9 10 9 6 5 4 4 4 3 3 3 3 2 2 2 2 2 2 2 2 2 2 2 2 1 1
8 7 7 7 6 6 6 6 6 7 6 5 4 4 6 7 8 8 7 5 4 3 3 3 3 3 3 3 3 3 3 2 2 2 2 2 2 2 2 2 2 3 2
7 12 9 7 7 6 6 6 6 6 5 5 4 3 2 3 3 3 3 3 4 3 3 3 3 3 3 3 3 3 2 2 2 2 2 2 2 1 1 2 2 2 2
6 9 12 8 6 6 6 6 5 5 5 4 3 3 4 3 3 3 2 2 3 3 3 3 3 3 3 3 3 3 3 2 1 1 1 1 1 1 2 2 2 2 2
6 6 6 6 5 5 5 5 5 5 5 4 2 2 4 3 2 2 2 2 3 3 3 4 3 3 3 3 3 3 2 2 1 0 0 1 1 1 2 2 2 2 2
6 6 5 5 5 7 6 4 4 4 4 4 4 3 3 3 3 3 3 3 3 3 3 3 4 3 2 2 3 4 3 3 2 2 1 0 1 1 2 2 3 3 3
5 5 6 5 5 5 5 5 5 5 5 5 4 4 4 3 3 3 3 3 3 3 3 3 4 5 5 4 3 2 3 3 2 2 2 1 1 2 2 2 3 4 4
4 4 5 5 5 5 5 5 4 5 5 5 4 4 4 4 3 3 3 3 4 4 4 4 3 4 6 6 5 4 4 4 3 2 1 1 1 2 3 3 3 4 4
4 4 4 4 4 4 5 5 5 5 5 5 5 4 4 4 4 4 4 4 4 4 4 3 5 5 6 6 6 6 5 5 4 3 2 1 2 2 3 3 4 4 5
Wind_Direction
173 171 168 171 174 173 183 194 189 181 174 172 177 177 176 177 174 169 178 176 175 184 183 170 181 161 137 119 100 105 119 132 150 233 1 17 39 48 46 49 61 63 67
164 159 161 161 160 163 172 183 176 172 166 167 164 168 175 173 172 172 180 174 167 166 174 159 167 143 119 106 98 99 117 133 142 144 36 23 35 45 57 59 56 63 65
151 149 151 151 154 158 156 145 141 147 146 149 146 152 158 159 162 169 157 142 136 136 145 141 143 125 114 94 93 86 82 87 101 116 92 36 33 38 48 46 46 36 58
144 145 150 152 151 146 138 128 122 128 125 124 127 138 139 139 141 137 127 119 109 96 86 92 99 114 122 113 93 87 93 88 90 98 87 49 31 16 47 44 37 27 31
141 143 148 146 138 129 123 118 111 110 110 104 104 104 105 109 116 123 123 119 113 103 88 81 83 89 87 90 97 98 102 102 98 94 85 66 40 31 22 5 42 31 30
141 143 140 134 128 122 117 109 102 98 95 93 92 92 87 93 99 110 119 116 114 111 105 93 85 79 82 79 79 79 86 105 112 104 93 91 72 46 26 38 46 47 19
135 134 132 129 122 117 113 104 102 99 92 87 85 89 90 91 99 107 111 112 107 105 106 104 94 85 83 83 75 70 66 69 85 109 103 100 96 61 68 53 52 66 35
131 132 133 129 122 117 113 109 104 99 97 93 88 91 94 90 97 102 103 96 90 85 89 98 101 92 89 95 89 76 66 56 66 82 102 99 98 93 87 100 103 78 31
127 131 132 129 126 122 118 115 111 105 99 94 92 93 94 88 92 102 106 100 93 82 77 80 94 94 93 99 96 90 76 59 63 75 83 82 75 69 72 71 59 69 39
134 131 128 126 124 122 119 114 108 105 102 97 86 80 90 92 93 101 109 108 102 94 80 73 76 87 88 93 97 98 90 73 74 71 60 52 49 44 48 72 100 97 92
122 117 116 118 120 119 113 111 110 107 102 97 90 77 74 80 87 96 108 112 117 108 96 82 73 80 83 84 87 90 100 103 90 84 71 51 40 35 30 37 61 108 110
117 114 112 115 118 114 113 110 110 111 107 103 98 87 68 63 76 95 101 102 108 106 102 95 88 84 80 79 80 82 85 86 80 73 64 47 38 24 14 22 33 48 109
112 109 107 103 101 107 115 117 114 111 112 111 108 102 86 70 72 82 92 97 98 96 101 105 95 86 76 70 71 74 75 77 79 76 68 42 7 4 19 20 17 26 24
115 112 111 108 102 93 93 104 113 116 119 120 119 115 106 89 77 77 85 91 88 88 88 86 79 73 69 66 62 56 56 69 85 84 70 31 22 30 30 29 32 25 30
116 115 112 108 107 95 81 66 88 90 124 131 129 126 127 118 109 113 112 102 104 105 100 78 68 65 63 60 56 53 51 52 57 55 59 50 36 32 19 18 41 46 43
122 119 116 114 110 109 105 82 57 75 88 92 100 109 97 109 114 104 98 99 102 105 92 86 82 82 84 84 80 64 54 53 54 62 59 54 45 38 23 15 32 42 21
127 127 122 120 120 120 119 116 104 71 70 79 92 100 108 114 107 102 98 97 96 98 87 90 93 98 99 97 93 87 68 53 64 66 59 44 39 37 35 21 16 17 359
120 121 122 120 122 123 121 120 121 122 112 82 70 89 101 103 101 100 101 92 78 72 90 104 109 108 104 100 100 99 85 63 57 55 48 36 33 37 28 10 4 2 340
120 122 121 120 119 119 118 116 115 116 116 112 99 79 87 93 89 94 98 94 107 100 98 106 113 113 109 106 106 102 95 86 72 60 43 30 24 34 20 357 350 353 358
120 126 125 125 124 123 122 122 121 119 119 120 122 123 105 88 85 83 85 99 108 117 123 123 121 119 119 115 111 107 94 84 69 58 33 13 9 25 12 350 345 340 323
123 128 127 124 125 129 130 131 132 131 132 133 141 148 139 121 123 123 119 123 134 141 141 133 128 128 126 121 120 119 115 106 92 71 32 3 1 357 339 332 326 325 319
123 125 127 128 128 130 133 136 138 139 143 143 146 143 145 123 123 129 142 151 152 151 149 141 141 147 152 149 145 139 135 138 144 114 14 350 348 338 336 336 329 320 318
126 128 128 129 131 137 137 139 144 148 150 153 152 146 142 145 147 150 154 153 145 143 142 139 140 144 149 152 154 153 158 179 196 187 174 306 334 327 319 311 311 314 311
133 136 137 138 138 144 147 149 154 157 155 155 157 159 161 163 164 166 164 158 149 148 149 151 157 162 163 161 161 164 174 184 183 183 183 200 269 297 303 304 302 301 299
129 135 138 142 145 148 151 155 160 163 162 162 164 166 168 168 171 175 170 163 156 159 167 167 169 174 177 175 176 185 191 190 191 189 189 202 265 285 296 296 296 299 298
138 142 142 142 146 149 152 157 162 163 165 168 169 171 173 174 175 175 172 169 169 173 178 182 188 188 185 184 188 189 193 199 204 203 191 217 265 285 298 294 298 299 301